Погода в Чаршанге

Погода в Чаршанге : погода сейчас, прогноз погоды и архив. Всё, что Вы хотите узнать о погоде в Чаршанге!

Хотите узнать прогноз погоды в Чаршанге? Тогда Вам сюда: Погода в Чаршанге

Поиск расширенной информации на нашем сайте:

Другие новости

Новости СМИ2

Главная страница сайта

Новости сайта

03.07.2017

Напоминаем, что на нашем специализированном сайте Метеоцентр.Азия вы можете получить высокодетализированные автоматические прогнозы погоды по пунктам России, СНГ и мира в авиационном формате (включающие направление и скорость ветра, видимость, явления погоды, количество и форму облачности, нижнюю и верхнюю границу облачности).

Рекомендуем: промокод ebay август 2015

Погода в Чаршанге - сегодня

Время (UTC), дата Ветер
(°,м/с) 
Видим.   Явления Облачность Т
(°С)
Тd
(°С)
f(%) Тe
(°С)
Pmin
(гПа)
dP
(гПа)
Po
(мм)
O2
(г/м3)
Тmin Tmax R s Состояние
почвы
21 21.11.17 тихо ()   10 км    ясно 
+4.8 -4.7 50 +5  1017.8  -0.7  739  293           
00 22.11.17 270 (З) 10 км    ясно 
+3.3 -5.8 51 +4  1017.3  -0.6  738  295           
03 22.11.17 тихо ()   10 км    ясно 
+1.8 -4 65 +2  1017.7  0.2  738  296           
06 22.11.17 тихо ()   10 км    ясно 
+15.1 +2.9 44 +15  1015.5  -0.6  738  281  +1.4         
09 22.11.17 120 (ЮВ) 10 км    4/0 верхняя 
[Ci sp]
+25 +1.3 21 +25  1011.8  -2.5  736  272           
12 22.11.17 090 (В) 10 км    8/0 верхняя 
[Cs]
+21.4 +1.1 26 +21  1011.3  -0.9  735  275           
15 22.11.17 тихо ()   10 км    8/0 верхняя 
[Cs]
+13.4 +0.9 42 +13  1012.6  0.5  736  282    +25.6       
18 22.11.17 110 (В) 10 км    8/0 верхняя 
[Cs]
+10.2 +0.6 51 +10  1013.4  0.5  736  286    +25.6       
21 22.11.17 090 (В) 10 км    ясно 
+7.6 -7.1 34 +9  1014.6  0.5  737  289           
00 23.11.17 тихо ()   10 км    ясно 
+6.3 -4 48 +6  1014.4  737  291           
03 23.11.17 110 (В) 10 км    5/0 верхняя 
[Ci fib]
+8.1 -0.7 54 +8  1014.9  0.5  737  288           
06 23.11.17 110 (В) 10 км    8/0 верхняя 
[Cs]
+13.5 -0.9 37 +15  1015.1  0.8  738  283  +5.8         
09 23.11.17 130 (ЮВ) 10 км    3/0 верхняя 
[Ci fib]
+22.6 +0.9 24 +23  1011.5  -2.5  736  274           
12 23.11.17 140 (ЮВ) 10 км    ясно 
+21.5 -0.2 23 +22  1010.7  -0.9  735  275           
15 23.11.17 тихо ()   10 км    ясно 
+15 -0.9 34 +15  1011.4  0.1  735  281    +23.1       
18 23.11.17 130 (ЮВ) 10 км    ясно 
+14 -0.5 37 +15  1011.5  735  282    +23.1       
21 23.11.17 тихо ()   10 км    ясно 
+11.2 -0.5 44 +11  1011.6  -0.2  735  284           
00 24.11.17 330 (СЗ) 10 км    6/0 средняя 
[Ac und]
+13 +0.6 43 +14  1011.6  0.2  735  283           
03 24.11.17 340 (С) 10 км    9/9 600 м 
[Sc]
+15.1 +0.6 37 +15  1014.8  3.2  737  281           
06 24.11.17 320 (СЗ) 10 км    9/9 600 м 
[Sc]
+18.6 +2.9 35 +20  1015.3  0.9  738  278  +11         
09 24.11.17 270 (З) 10 км    9/9 600 м 
[Sc]
+17.2 +3.8 41 +17  1016.5  739  279           
12 24.11.17 290 (З) 10 км    9/9 600 м 
[Sc]
+15.5 +4.3 47 +16  1015.8  -0.9  738  281           
15 24.11.17 260 (З) 10 км    5/0 верхняя 
[Ci fib]
+14.8 +3.6 47 +16  1015.6  -0.2  738  282    +19.3       
18 24.11.17 140 (ЮВ) 10 км    5/0 верхняя 
[Ci fib]
+10.4 +4.6 67 +12  1017.6  1.5  739  286    +19.3       
21 24.11.17 тихо ()   10 км    5/0 верхняя 
[Ci fib]
+8.6 +3 68 +9  1017.3  -0.5  739  288           
Время (UTC), дата Ветер
(°,м/с) 
Видим.   Явления Облачность Т
(°С)
Тd
(°С)
f(%) Тe
(°С)
Pmin
(гПа)
dP
(гПа)
Po
(мм)
O2
(г/м3)
Тmin Tmax R s Состояние
почвы

Для получения пояснительной информации подведите курсор к названию столбца.

ПОГОДА в Чаршанге - архив

Всё, что Вы хотите узнать о погоде в Чаршанге - удобно и подробно!

Выберите нужную дату (начиная с 1 января 2015* года) и нажмите кнопку "Найти".
Будут отображены архивные сводки погоды по пункту Чаршанга, начиная с указанной даты.


Отображать данные в формате CSV (для использования в таблицах Excel)


Внимание! Наш архив погоды предназначен исключительно для личного некоммерческого использования в познавательных целях. Если Вам необходимы официальные справки о состоянии погоды (для производственных, юридических, коммерческих и т.п. целей), обращайтесь в органы Росгидромета.

*Примечание: данная дата относится к архиву по метеостанциям СССР (Россия, СНГ, Балтия).
Архив по метеостанциям Зарубежной Европы и Азии (кроме Китая) хранится 10 дней, по другим регионам земного шара (Китай, Африка, Америка, Австралия, Океания) - 1 день.

Чаршанга - район местоположения метеостанции


Название, широта, долгота, высота метеостанции:
Чаршанга 37.5°ш. 66°д. 265 м над ур. моря [Туркменистан]

Дополнительная информация

В oтличие oт бoльшинства пoгoдных сайтoв мы публикуем пoдрoбную метеoинфoрмацию в детальнoм прoфессиoнальнoм фoрмате.

Характеристики температуры и влажнoсти вoздуха измеряются на высoте 2 м в тени вдали oт зданий и деревьев.
Скoрoсть ветра измеряется на высoте 10 м (на урoвне рoста челoвека скoрoсть ветра ниже в 1.5-2 раза). Если метеoстанция нахoдится в гoрoде или в лесу, тo скoрoсть ветра занижена на 2-4 м/с пo сравнению с oткрытым местoм. Скoрoсть ветра над акватoриями крупных рек и oзёр, а также на вершинах хoлмoв на 2-5 м/с выше, чем в oбычных услoвиях.
Атмoсфернoе давление в разных тoчках местнoсти мoжет значительнo oтличаться oт давления на метеoстанции, в зависимoсти oт услoвий рельефа (при пoдъёме на 10 м давление пoнижается примернo на 1 мм рт.ст.).